User: anonymous   Login
Location: Newark
(42.9277°N, 71.8621°W)
Time: 05:00:35
(UTC+00:00)
Language:

Transit 4A - Orbit

View from above orbital plane
View from above orbital plane
View from above satellite
View from above satellite

Ground track
Ground track

The orbit data is extracted from the following two-line orbital elements,

1 00116U 61015A   21134.31898063 -.00000074  00000-0  22183-5 0  9993
2 00116  66.8081 119.3595 0070854 141.1978 219.4220 13.91788971 37854
Epoch (UTC): 14 May 2021 07:39:19
Eccentricity: 0.0070854
inclination: 66.8081°
perigee height: 870 km
apogee height: 974 km
right ascension of ascending node: 119.3595°
argument of perigee: 141.1978°
revolutions per day: 13.91788971
mean anomaly at epoch: 219.4220°
orbit number at epoch: 3785

The dashed part of the orbit path shows where the satellite is in the earth's shadow,  

DLR